Погода в Улудаге

Турция     40°05′45″N   29°10′26″E
темп.,
°C
ветер,
м/с
пор.,
м/с
влажн.,
%
обл.,
%
осадки,
мм/ч
давл.,
гПа
погр.,
м
25 июня, сб
сб2500:00+10ссв22860 0.0 101534
03:00+10с12890 0.0 101514
06:00+10ссз22890 0.0 101526
09:00+16сз346525 0.0 10151044
12:00+18ссз455622 0.2 10141686
15:00+19с455048 0.3 10141824
18:00+18с355398 0.1 10141460
21:00+13ссв228332 0.1 101522
26 июня, вс
вс2600:00+12с227898 0.0 101536
03:00+12ссз227991 0.0 101530
06:00+11с228147 0.0 101527
09:00+15с2460100 0.0 10151016
12:00+18ссв3347100 0.0 10151524
15:00+19ссв434768 0.0 10151725
18:00+17св446034 0.1 10151063
21:00+11св33865 0.1 101744
27 июня, пн
пн2700:00+11ссв2279100 0.0 101715
03:00+10ссв22725 0.0 101717
06:00+10ссв22835 0.0 101729
09:00+15ссв23665 0.0 1016794
12:00+18ссв3456100 0.0 10161488
15:00+18с456587 0.4 10151191
18:00+16с4674100 0.3 1016835
21:00+13с368999 0.6 1016309
28 июня, вт
вт2800:00+12с349763 0.3 1016177
03:00+12ссз249898 0.3 1014209
06:00+13св2299100 9.8 1014211
09:00+15с238621 10.6 1015543
12:00+19с345929 0.1 10141411
15:00+18ссв446471 0.4 10141127
18:00+17ссв347449 0.5 1014814
21:00+14ссв239461 0.7 1015178
29 июня, ср
ср2900:00+13ссв239775 0.1 1015149
03:00+12ссв239668 0.1 1015122
06:00+11св239648 0.0 1015132
09:00+15ссв346759 0.1 1015837
12:00+17ссв346549 0.1 10151028
15:00+17ссв446843 0.2 1014895
18:00+18ссв446524 0.0 1014944
21:00+12св33920 0.0 101549